Location: ???????
(38.3360°N, 23.6977°E)
Time: 22:43:26
(UTC+00:00)

H-II Stage 2 - Pass Details

Date: 17 November 2025
Orbit: 322 x 26722 km, 28.4° (Epoch: 11 December)

Event Time Altitude Azimuth Distance (km) Brightness Sun altitude
Rises 16:33:58 0° 260° (W) 11,610 10.4 -16.3°
Reaches altitude 10° 16:47:21 10° 256° (WSW) 6,778 8.6 -18.8°
Maximum altitude 17:00:08 35° 197° (SSW) 1,620 4.3 -21.3°
Enters shadow 17:02:22 23° 147° (SSE) 1,540 3.8 -21.8°
